Погода в Пачелме

Погода в Пачелме : погода сейчас, прогноз погоды и архив. Всё, что Вы хотите узнать о погоде в Пачелме!

Хотите узнать прогноз погоды в Пачелме? Тогда Вам сюда: Погода в Пачелме

Поиск расширенной информации на нашем сайте:

Другие новости

Новости СМИ2

Главная страница сайта

Новости сайта

03.07.2017

Напоминаем, что на нашем специализированном сайте Метеоцентр.Азия вы можете получить высокодетализированные автоматические прогнозы погоды по пунктам России, СНГ и мира в авиационном формате (включающие направление и скорость ветра, видимость, явления погоды, количество и форму облачности, нижнюю и верхнюю границу облачности).


Погода в Пачелме - сегодня

Время (UTC), дата Ветер
(°,м/с) 
Видим.   Явления Облачность Т
(°С)
Тd
(°С)
f(%) Тe
(°С)
Pmin
(гПа)
dP
(гПа)
Po
(мм)
O2
(г/м3)
Тmin Tmax R s Состояние
почвы
09 23.05.18 160 (Ю) 10 км    10/0 средняя 
[Ac und]
+18 +7.8 51 +18  1025.2  -0.3  746  281           
18 23.05.18 110 (В) н/о    н/о 
+18 +12.3 69 +24  1021.1  -0.8  743  278           
21 23.05.18 210 (ЮЗ) 10 км    10/0 средняя 
[As trans]
+18.5 +12.1 66 +23  1021.4  0.3  743  278           
00 24.05.18 080 (В) 10 км    10/0 средняя 
[As op]
+17 +13.9 82 +25  1020.6  -0.9  743  279           
03 24.05.18 050 (СВ) 10 км  {дождь}  10/0 средняя 
[As op]
+17.1 +13.8 81 +25  1018.9  -1.7  741  278  +16.4    0.3    влажная 
15 24.05.18 020 (С) 10 км  {ливн. осадки}  10/8 800 м средняя 
[Cu hum|As trans]
+20.1 +15.2 73 +30  1014.7  738  274    +24.6  0.8     
21 24.05.18 040 (СВ) 10 км    8/8 600 м 
[Sc]
+15.7 +14.3 91 +24  1013.9  -2.1  737  278           
03 25.05.18 030 (СВ) 10 км    6/0 средняя 
[Ac cuf]
+14.8 +13.4 91 +21  1015.6  1.5  739  280  +14      влажная 
06 25.05.18 030 (СВ) 10 км    8/8 800 м 
[Cu Sc]
+16.3 +13.1 81 +22  1016.9  1.4  740  279           
15 25.05.18 040 (СВ) 5-10{14}  10 км    ясно 
+15.9 +1.1 37 +16  1020.5  1.4  742  282    +18.8       
18 25.05.18 040 (СВ) 5{13}  10 км    ясно 
+11.6 +0.8 47 +11  1024  2.9  744  288           
21 25.05.18 040 (СВ) 10 км    ясно 
+8 +1 61 +8  1026.7  2.2  746  292           
00 26.05.18 020 (С) 10 км    ясно 
+5.2 +0.5 72 +5  1028.6  1.5  747  295           
06 26.05.18 020 (С) 4{10}  10 км    ясно 
+11.5 -3.3 35 +11  1031.3  1.2  750  290           
09 26.05.18 030 (СВ) 5{10}  10 км    ясно 
+14.1 -3.7 29 +14  1031.6  0.6  750  288           
15 26.05.18 030 (СВ) 10 км    ясно 
+15.4 -2.5 29 +16  1030.5  -0.5  749  286    +16.2       
18 26.05.18 060 (СВ) 10 км    ясно 
+8.2 +1.5 63 +9  1032  0.7  750  293           
21 26.05.18 100 (В) 10 км    ясно 
+4.9 +1.8 80 +6  1032.8  0.4  750  297           
00 27.05.18 190 (Ю) 10 км    ясно 
+4.4 +0.1 74 +5  1032.9  -0.1  750  297           
06 27.05.18 270 (З) 10 км    ясно 
+15.2 -0 35 +15  1031  -0.8  750  286           
09 27.05.18 280 (З) 10 км    3/0 верхняя 
[Ci sp]
+17.8 +0.2 30 +18  1028.5  -2.2  748  283           
12 27.05.18 260 (З) 10 км    4/0 верхняя 
[Cc]
+20 +1.8 30 +20  1025.2  -3  746  280           
15 27.05.18 280 (З) 4{11}  10 км    3/0 верхняя 
[Cc]
+19.5 +1.4 30 +20  1022.2  -3  744  279    +20.3       
18 27.05.18 250 (З) 10 км    3/0 средняя 
[Ac trans]
+15 +2.1 42 +16  1021.3  -1.3  743  283           
21 27.05.18 260 (З) 10 км    ясно 
+11.9 +3.7 57 +12  1020.8  -0.8  742  286           
Время (UTC), дата Ветер
(°,м/с) 
Видим.   Явления Облачность Т
(°С)
Тd
(°С)
f(%) Тe
(°С)
Pmin
(гПа)
dP
(гПа)
Po
(мм)
O2
(г/м3)
Тmin Tmax R s Состояние
почвы

Для получения пояснительной информации подведите курсор к названию столбца.

ПОГОДА в Пачелме - архив

Всё, что Вы хотите узнать о погоде в Пачелме - удобно и подробно!

Выберите нужную дату (начиная с 1 января 2015* года) и нажмите кнопку "Найти".
Будут отображены архивные сводки погоды по пункту Пачелма, начиная с указанной даты.


Отображать данные в формате CSV (для использования в таблицах Excel)


Внимание! Наш архив погоды предназначен исключительно для личного некоммерческого использования в познавательных целях. Если Вам необходимы официальные справки о состоянии погоды (для производственных, юридических, коммерческих и т.п. целей), обращайтесь в органы Росгидромета.

*Примечание: данная дата относится к архиву по метеостанциям СССР (Россия, СНГ, Балтия).
Архив по метеостанциям Зарубежной Европы и Азии (кроме Китая) хранится 10 дней, по другим регионам земного шара (Китай, Африка, Америка, Австралия, Океания) - 1 день.

Пачелма - район местоположения метеостанции


Название, широта, долгота, высота метеостанции:
Пачелма 53.3°ш. 43.3°д. 261 м над ур. моря [Российская Федерация]

Дополнительная информация

В oтличие oт бoльшинства пoгoдных сайтoв мы публикуем пoдрoбную метеoинфoрмацию в детальнoм прoфессиoнальнoм фoрмате.

Характеристики температуры и влажнoсти вoздуха измеряются на высoте 2 м в тени вдали oт зданий и деревьев.
Скoрoсть ветра измеряется на высoте 10 м (на урoвне рoста челoвека скoрoсть ветра ниже в 1.5-2 раза). Если метеoстанция нахoдится в гoрoде или в лесу, тo скoрoсть ветра занижена на 2-4 м/с пo сравнению с oткрытым местoм. Скoрoсть ветра над акватoриями крупных рек и oзёр, а также на вершинах хoлмoв на 2-5 м/с выше, чем в oбычных услoвиях.
Атмoсфернoе давление в разных тoчках местнoсти мoжет значительнo oтличаться oт давления на метеoстанции, в зависимoсти oт услoвий рельефа (при пoдъёме на 10 м давление пoнижается примернo на 1 мм рт.ст.).